Location: Presov
(49.0000°N, 21.2500°E)
Time: 06:31:49
(UTC+02:00)

Transit 2A Rocket - Pass Details

Date: 22 April 2021
Orbit: 594 x 909 km, 66.7° (Epoch: 07 May)

Event Time Altitude Azimuth Distance (km) Brightness Sun altitude
Rises 00:08:06 0° 322° (NW) 2,877 8.8 -28.6°
Reaches altitude 10° 00:10:19 10° 319° (NW) 1,993 7.8 -28.6°
Enters shadow 00:13:06 38° 306° (NW) 985 5.8 -28.7°
Maximum altitude 00:14:44 65° 238° (WSW) 714 - -28.7°
Drops below altitude 10° 00:19:29 10° 157° (SSE) 2,131 - -28.7°
Sets 00:21:55 0° 155° (SSE) 3,095 - -28.8°
